Location: Observatorio Las Palmas
(29.0667°N, 110.9333°W)
Time: 02:57:18
(UTC-07:00)

Skynet4D Del rocket - Visible Passes

Search period start: 28 May 2015 00:00
Search period end: 07 June 2015 00:00
Orbit: 763 x 1291 km, 26.9° (Epoch: 27 May)

Date Brightness Start Highest point End Pass type
(mag) Time Alt. Az. Time Alt. Az. Time Alt. Az.
28 May 3.8 03:17:01 56° SSW 03:17:20 57° SSW 03:22:54 10° ESE visible
28 May 5.5 20:21:56 10° SSW 20:27:36 21° SSE 20:29:36 19° SE visible
28 May 5.9 22:12:52 10° SW 22:15:20 20° SW 22:15:20 20° SW visible
29 May 5.7 02:10:41 19° ESE 02:10:41 19° ESE 02:12:11 10° ESE visible
29 May 4.3 03:56:22 28° WSW 03:58:34 37° SSW 04:03:42 10° SE visible
29 May 4.9 21:01:41 10° SW 21:08:57 35° SSE 21:09:46 34° SE visible
29 May 6.3 22:54:01 10° WSW 22:55:29 16° WSW 22:55:29 16° WSW visible
30 May 4.9 02:50:14 31° SE 02:50:14 31° SE 02:53:18 10° ESE visible
30 May 5.0 04:35:55 12° WSW 04:39:39 21° SSW 04:43:43 10° SSE visible
30 May 5.5 19:51:02 10° SSW 19:57:27 25° SSE 20:03:48 10° ESE visible
30 May 4.6 21:42:24 10° WSW 21:49:47 51° S 21:49:47 51° S visible
31 May 4.7 03:29:59 30° S 03:29:59 30° S 03:33:56 10° SE visible
31 May 4.9 20:31:08 10° SW 20:38:48 41° SSE 20:43:54 20° ESE visible
31 May 4.8 22:23:41 10° WSW 22:29:36 49° SW 22:29:36 49° SW visible
01 Jun 5.1 04:09:54 18° SSW 04:09:54 18° SSW 04:13:37 10° SSE visible
01 Jun 4.5 21:12:02 10° WSW 21:20:12 58° SSE 21:23:29 36° ESE visible
01 Jun 5.6 23:05:14 10° W 23:09:10 31° WSW 23:09:10 31° WSW visible
02 Jun 4.9 20:00:43 10° SW 20:08:35 46° SSE 20:16:17 10° E visible
02 Jun 4.3 21:53:24 10° WSW 22:01:44 72° S 22:02:51 64° SE visible
02 Jun 6.3 23:46:54 10° W 23:48:30 17° W 23:48:30 17° W visible
03 Jun 4.6 20:41:46 10° WSW 20:50:02 63° SSE 20:56:19 18° E visible
03 Jun 4.6 22:35:00 10° W 22:41:58 64° WSW 22:41:58 64° WSW visible
04 Jun 4.4 21:23:12 10° WSW 21:31:35 75° S 21:35:16 36° E visible
04 Jun 5.5 23:16:40 10° W 23:20:54 33° W 23:20:54 33° W visible
05 Jun 4.6 20:11:36 10° WSW 20:19:50 68° S 20:28:02 10° E visible
05 Jun 4.3 22:04:48 10° W 22:13:11 77° S 22:14:06 70° SE visible
05 Jun 6.4 23:58:24 10° W 23:59:43 15° W 23:59:43 15° W visible
06 Jun 4.5 20:53:03 10° W 21:01:25 77° S 21:07:10 22° E visible
06 Jun 4.9 22:46:27 10° W 22:52:47 52° WSW 22:52:47 52° WSW visible
